Location: Avalon Gardens
(33.9572°N, 118.2631°W)
Time: 05:17:00
(UTC+00:00)

Daily predictions for brighter satellites

Satellite Brightness Start Highest point End
(mag) Time Altitude Azimuth Time Altitude Azimuth Time Altitude Azimuth
Cosmos 1627 Rocket 4.5 03:28:36 10° S 03:34:48 74° E 03:40:57 10° N
Cosmos 1626 3.1 03:34:37 10° SSW 03:37:40 42° W 03:40:43 10° N
SJ-6B 3.7 03:36:48 10° S 03:40:15 45° W 03:43:44 10° NNW
Cosmos 1470 Rocket 4.2 03:37:27 10° NNE 03:41:29 37° E 03:45:28 10° SSE
Cosmos 1470 4.4 03:39:02 10° NE 03:41:31 17° ENE 03:44:00 10° ESE
USA 186 1.8 03:38:13 10° SSE 03:41:31 83° ENE 03:44:52 10° N
Lacrosse 5 rocket 3.5 03:39:29 10° WNW 03:42:34 20° WSW 03:45:35 10° SSW
Okean O Rocket 2.1 03:38:52 10° SE 03:43:03 44° ENE 03:47:12 10° N
KORONAS-FOTON 4.3 03:39:42 10° SSE 03:43:07 36° E 03:46:34 10° NNE
Cosmos 1666 Rocket 3.7 03:44:16 10° N 03:48:37 80° W 03:52:59 10° S
Cosmos 1842 3.3 03:46:17 10° S 03:49:48 49° E 03:53:21 10° NNE
Tiangong -0.8 03:51:02 10° NW 03:53:59 35° NNE 03:56:54 10° E
CZ-4 R/B 2.8 03:54:42 10° SSW 03:58:19 36° W 04:02:03 10° NNW
CZ-4B R/B 3.3 03:53:11 10° S 03:58:27 77° WSW 04:03:47 10° NNW
SPOT 5 3.8 04:01:23 14° ESE 04:04:08 25° ENE 04:07:44 10° NNE
Cosmos 1954 Rocket 4.1 03:59:07 10° SSW 04:04:25 84° WNW 04:09:43 10° NNE
Cosmos 1933 Rocket 4.3 04:01:35 10° NNE 04:05:39 35° E 04:08:38 16° SE
SL-24 R/B 4.3 04:03:37 10° SSE 04:08:37 73° ENE 04:12:57 10° N
Cosmos 1707 2.4 04:07:48 10° S 04:11:24 76° E 04:14:59 10° N
ASTRO E2 3.0 04:10:25 10° SW 04:13:35 34° SSE 04:15:15 22° ESE
Meteor 2-12 Rocket 4.4 04:07:40 10° S 04:13:49 85° E 04:20:00 10° N
Resurs 01 Rocket 2.2 04:09:44 10° S 04:14:02 56° W 04:18:22 10° NNW
Cosmos 2360 Rocket 4.3 04:13:01 10° NNE 04:15:12 12° NE 04:17:22 10° ENE
Cosmos 676 Rocket 4.1 04:10:56 10° SSW 04:16:15 81° WNW 04:21:35 10° NNE
PSLV R/B 3.8 04:14:50 11° S 04:18:11 68° WSW 04:21:41 10° NNW
RESURS DK-1 4.4 04:21:20 10° NNE 04:23:32 14° ENE 04:25:03 12° E
Cosmos 1674 4.2 04:23:29 10° SW 04:26:38 32° W 04:29:47 10° NNW
SJ 16-02 3.1 04:27:06 15° E 04:27:06 15° E 04:29:10 10° ENE
SL-16 R/B 3.2 04:23:03 10° N 04:28:08 33° ENE 04:31:06 20° ESE
SL-27 R/B 4.0 04:31:11 15° ENE 04:31:11 15° ENE 04:32:00 10° NE
ERS-1 Rocket 3.8 04:29:36 22° ESE 04:32:02 35° ENE 04:36:33 10° N
Cosmos 2333 Rocket 4.1 04:28:54 10° NNE 04:32:21 16° NE 04:35:10 12° E
CZ-4C R/B 3.5 04:28:52 10° N 04:33:01 82° WNW 04:37:04 10° SSW
Cosmos 2369 4.1 04:27:30 10° NNW 04:33:09 63° WSW 04:37:46 16° S
Terra 2.8 04:35:24 24° ESE 04:37:10 31° ENE 04:41:18 10° N
MetOp-B 4.1 04:36:45 23° SSE 04:40:06 70° ENE 04:45:26 10° N
Cosmos 841 Rocket 4.3 04:35:39 10° N 04:40:30 36° ENE 04:42:38 26° ESE
Cosmos 1763 Rocket 3.9 04:36:06 10° NNW 04:41:13 59° WSW 04:44:58 18° S
Atlas Centaur 2 3.1 04:33:35 10° W 04:41:30 67° S 04:47:22 21° ESE
Spot 2 Rocket 4.3 04:44:23 27° ESE 04:46:13 35° ENE 04:50:48 10° N
Cosmos 1300 4.2 04:45:03 10° NNE 04:47:23 19° ENE 04:47:23 19° ENE
Cosmos 1400 Rocket 2.7 04:50:12 26° S 04:52:17 85° W 04:56:10 10° N
Cosmos 1441 Rocket 3.1 04:50:55 10° NNW 04:54:31 74° W 04:55:40 41° S
USA 234 3.8 04:48:51 10° NE 04:55:17 62° NW 05:01:41 10° WSW
ARGOS Delta rocket 3.7 04:55:11 30° S 04:57:23 75° W 05:01:48 10° NNW
ATLAS CENTAUR R/B 1.9 04:54:31 10° SW 04:57:50 46° WNW 05:01:15 10° NNE
Cosmos 1733 Rocket 4.3 04:54:08 10° NNE 04:57:52 26° ENE 04:58:06 26° E
Cosmos 1908 3.5 04:55:23 10° NNW 04:58:55 57° W 05:00:08 36° SSW
Cosmos 1356 Rocket 3.5 04:58:19 47° SE 04:59:03 55° E 05:03:10 10° NNE
IRS-1A Rocket 4.1 04:57:26 31° SSE 05:00:12 86° E 05:05:44 10° NNW
Okean-O 3.6 04:57:59 19° SSW 05:00:46 42° W 05:04:57 10° NNW
Cosmos 1417 Rocket 4.4 04:58:31 10° N 05:04:42 86° W 05:08:06 28° S
Cosmos 1980 Rocket 4.2 05:03:31 10° NW 05:07:41 21° W 05:11:49 10° SSW
USA 245 2.8 05:09:33 80° ESE 05:09:40 83° ENE 05:13:40 10° N
Cosmos 2322 Rocket 2.7 05:04:55 10° N 05:10:22 46° ENE 05:11:59 37° ESE
Ariane Rocket 3.1 05:09:34 44° SE 05:10:56 59° ENE 05:15:56 10° N
Meteor 2-10 Rocket 3.6 05:06:28 10° N 05:11:54 64° E 05:13:20 46° SE
Meteor 1-12 Rocket 4.4 05:07:42 10° N 05:13:43 69° E 05:15:46 42° SSE
Meteor 1-22 Rocket 4.2 05:08:00 10° N 05:13:47 89° W 05:16:17 37° S
Cosmos 2228 Rocket 3.1 05:16:47 47° SSW 05:18:05 85° W 05:22:40 10° N
Landsat 4 4.0 05:19:36 50° NNE 05:19:36 50° NNE 05:22:25 10° N
Okean O Rocket 4.3 05:17:30 10° WSW 05:19:28 13° W 05:21:26 10° WNW
BlueWalker 3 3.8 05:22:32 20° NE 05:22:32 20° NE 05:23:47 10° NE
Cosmos 1869 Rocket 4.3 05:18:01 10° NNW 05:22:19 49° W 05:23:48 34° SW
Cosmos 2278 4.0 05:17:54 10° NNW 05:23:31 60° WSW 05:25:34 38° S
MOS 1 Rocket 3.5 05:26:15 51° SSE 05:27:41 90° E 05:33:03 10° NNW
Cosmos 1241 Rocket 4.3 05:24:53 15° SSW 05:30:04 88° WNW 05:36:18 10° NNE
Meteor 1-21 4.2 05:28:09 38° SSW 05:30:31 85° W 05:36:21 10° N
Tiangong 0.0 05:27:47 10° WNW 05:29:15 22° W 05:29:15 22° W
Cosmos 2219 Rocket 3.4 05:29:35 10° N 05:34:25 28° ENE 05:35:22 27° ENE
SL-14 R/B 4.3 05:35:08 36° WSW 05:35:46 39° W 05:39:20 10° N
Cosmos 968 Rocket 4.0 05:35:06 23° SW 05:38:06 55° WNW 05:43:11 10° N
SeaSat 1 2.4 05:37:33 64° S 05:38:12 76° WSW 05:43:08 10° NNW
MetOp-A 4.3 05:38:18 49° E 05:38:39 50° ENE 05:43:43 10° N
Spot 1 4.2 05:34:00 10° NNE 05:38:40 87° WNW 05:39:20 67° SSW
ATLAS 2AS CENTAUR R/B 3.1 05:32:51 10° NNW 05:39:23 50° NE 05:41:14 39° E
SPOT 3 Rocket 3.5 05:41:18 60° SSW 05:42:10 74° WSW 05:47:19 10° NNW
Landsat 5 3.6 05:41:19 10° N 05:45:11 72° NW 05:45:11 72° NW
Cosmos 1455 4.4 05:42:42 10° NNE 05:43:39 15° NE 05:43:39 15° NE
Okean 3 3.7 05:46:51 65° WNW 05:46:51 65° WNW 05:50:44 10° N
Cosmos 1346 Rocket 3.3 05:42:59 10° NNW 05:46:06 54° NNW 05:46:06 54° NNW
Cosmos 1862 Rocket 4.2 05:47:52 47° WSW 05:48:24 50° W 05:52:42 10° N
Cosmos 1814 Rocket 4.1 05:52:52 10° N 05:58:07 65° ENE 05:58:07 65° ENE
Cosmos 2360 Rocket 2.0 05:54:12 10° NNW 05:59:53 85° WSW 06:00:15 78° S
RESURS DK-1 3.6 05:57:37 10° NW 06:00:39 35° W 06:00:39 35° W
SJ 16-02 2.7 06:03:47 31° W 06:04:37 34° WNW 06:08:33 10° N
Cosmos 1244 Rocket 4.5 06:05:47 58° SSW 06:07:02 77° W 06:13:21 10° N
COSMOS 2455 3.4 06:10:53 43° ENE 06:10:53 43° ENE 06:15:25 10° NE
SL-16 R/B 3.5 06:07:16 10° NW 06:12:02 28° WSW 06:12:57 27° WSW
Terra 3.6 06:14:06 21° WSW 06:14:44 21° W 06:18:17 10° NW
Cosmos 2333 Rocket 2.3 06:11:23 10° NNW 06:17:06 67° WSW 06:17:10 67° WSW
Cosmos 839 Rocket 3.9 06:21:09 10° NNW 06:27:39 78° ENE 06:27:50 77° E
ARIANE 5 R/B 3.9 06:30:35 35° NNE 06:30:35 35° NNE 06:33:18 10° N
Atlas Centaur 2 3.5 06:22:54 10° W 06:29:34 42° SW 06:29:34 42° SW
Cosmos 1709 Rocket 4.4 06:33:07 51° ENE 06:33:07 51° ENE 06:38:46 10° NNE
Cosmos 2227 Rocket 4.3 06:37:23 15° ENE 06:37:23 15° ENE 06:38:52 10° NE
Cosmos 2237 Rocket 4.3 06:31:54 10° NNE 06:35:15 16° NE 06:36:08 15° ENE
DNEPR-1 R/B 4.3 06:30:15 10° NNW 06:35:43 68° N 06:35:43 68° N
Cosmos 2322 4.1 06:34:06 10° NNW 06:39:08 54° NE 06:39:08 54° NE
CZ-4C R/B 3.1 06:43:38 33° NNE 06:43:38 33° NNE 06:46:30 10° NNE
Cosmos 1375 Rocket 4.5 06:45:43 10° NNW 06:52:08 82° NNE 06:52:08 82° NNE
Cosmos 2322 Rocket 4.0 06:49:58 10° NW 06:53:48 20° W 06:53:48 20° W
Cosmos 2297 Rocket 2.9 06:56:04 45° NE 06:56:04 45° NE 07:00:02 10° NNE
Meteor 2-5 Rocket 4.1 07:18:28 63° N 07:18:28 63° N 07:23:20 10° N
Cosmos 2219 Rocket 3.5 07:13:15 10° NW 07:17:04 31° WNW 07:17:04 31° WNW
ALOS 2 4.4 07:21:24 30° N 07:21:24 30° N 07:23:41 10° N
COSMOS 2428 3.3 07:16:23 10° NNW 07:20:46 54° NW 07:20:46 54° NW
Cosmos 2263 Rocket 4.3 07:28:45 16° ENE 07:28:45 16° ENE 07:30:27 10° NE
USA 281 3.5 07:28:43 55° W 07:28:43 55° W 07:34:31 10° NNW
ATLAS 2AS CENTAUR R/B 4.1 07:24:33 10° WNW 07:28:39 24° W 07:28:39 24° W
Cosmos 2181 Rocket 4.2 07:38:17 10° N 07:43:33 63° NNE 07:43:33 63° NNE
Cosmos 2074 Rocket 4.3 07:48:37 60° NE 07:48:37 60° NE 07:53:50 10° N
SL-4 R/B 4.5 07:58:24 10° NNW 08:00:05 21° NNW 08:00:05 21° NNW
SL-12 R/B(2) 4.1 08:07:12 70° WSW 08:08:08 79° WNW 08:17:17 10° NNE
SL-16 R/B 3.6 08:08:20 10° N 08:13:18 30° ENE 08:13:49 30° ENE
Cosmos 2227 Rocket 3.1 08:19:09 42° NW 08:19:09 42° NW 08:23:51 10° N
Cosmos 2237 Rocket 3.1 08:14:10 10° NNW 08:17:55 41° NW 08:17:55 41° NW
CENTAUR R/B 2.9 08:20:13 51° NW 08:20:13 51° NW 08:26:06 10° NNE
GEOS 3 Rocket 4.4 08:18:02 10° NNE 08:22:06 46° NNW 08:22:06 46° NNW
Nadezhda 3 Rocket 4.1 08:24:58 10° N 08:30:36 72° NNE 08:30:36 72° NNE
Cosmos 1937 Rocket 4.5 08:40:11 43° NE 08:40:11 43° NE 08:43:56 10° NNE
Cosmos 2297 Rocket 4.4 08:37:49 15° WNW 08:38:56 15° NW 08:42:10 10° NNW
H-2A R/B 4.3 08:38:14 10° NNW 08:39:52 18° NW 08:39:52 18° NW
Cosmos 2219 3.9 08:43:27 48° NW 08:43:27 48° NW 08:48:07 10° N
Cosmos 1898 Rocket 4.2 08:45:27 50° NNE 08:45:27 50° NNE 08:49:14 10° NNE
Resurs 1-4 Rocket 3.5 08:58:51 10° NE 09:03:13 28° E 09:03:13 28° E
SL-8 Rocket 3.9 09:06:26 83° ENE 09:06:26 83° ENE 09:12:29 10° N
NOSS 3-2 (A) 4.3 09:09:04 32° NW 09:09:15 32° NW 09:14:23 10° NNE
Cosmos 2263 Rocket 2.9 09:10:25 43° NW 09:10:25 43° NW 09:15:17 10° N
NOSS 3-2 (C) 3.3 09:16:18 63° NNW 09:16:18 63° NNW 09:21:27 10° NNE
Meteor 2-1 Rocket 4.2 09:12:06 10° N 09:17:52 81° ENE 09:17:52 81° ENE
Cosmos 1680 Rocket 4.2 09:17:42 10° N 09:22:43 47° ENE 09:23:20 45° E
Cosmos 1959 Rocket 4.3 09:25:42 81° SW 09:25:59 85° W 09:32:22 10° N
USA 267 4.0 09:20:29 10° ENE 09:26:25 36° SE 09:26:45 36° SE
Cosmos 1844 Rocket 3.2 09:29:05 46° ESE 09:29:11 46° ESE 09:34:30 10° NE
Cosmos 1818 4.3 09:24:53 10° NNW 09:30:13 51° ENE 09:32:05 35° ESE
COBE Rocket 4.2 09:33:33 10° N 09:38:16 62° NW 09:38:16 62° NW
Cosmos 2341 Rocket 4.4 09:41:06 45° W 09:41:12 45° W 09:47:07 10° N
BREEZE-M DEB (TANK) 4.0 09:45:16 26° NE 09:45:32 26° NE 09:49:34 10° ESE
IDEFIX/ARIANE 42P 2.5 09:44:10 10° N 09:49:23 73° WNW 09:49:25 73° WNW
MOZ.5/SAFIR/RUBIN 5/SL-8 4.4 09:56:28 45° NW 09:56:28 45° NW 09:59:59 10° NNW
SL-16 R/B 3.5 09:52:21 10° NW 09:55:38 27° WNW 09:55:38 27° WNW
Mugunghwa Rocket 4.5 09:59:07 42° SSE 09:59:07 42° SSE 10:04:32 10° ESE
CZ-2C R/B 2.9 09:54:11 10° NNE 09:59:29 79° ESE 10:00:02 70° SSE
CZ-2C R/B 2.6 09:59:28 54° SSE 10:00:40 77° ENE 10:06:02 10° N
Cosmos 1125 Rocket 4.4 10:01:35 34° SE 10:02:54 40° E 10:07:49 10° NNE
Cosmos 2228 3.7 10:03:20 10° NNW 10:06:35 44° NW 10:06:35 44° NW
CZ-2D R/B 2.0 10:02:17 10° N 10:07:35 71° WNW 10:08:12 64° WSW
MSX 4.0 10:04:39 10° N 10:10:14 57° WNW 10:11:12 50° WSW
Cosmos 1821 Rocket 4.0 10:09:42 52° WSW 10:10:44 59° W 10:16:47 10° N
Cosmos 1943 3.0 10:05:27 10° NNW 10:11:05 88° WSW 10:12:59 44° SSE
Cosmos 1867 3.9 10:10:54 46° W 10:11:44 50° WNW 10:17:03 10° NNE
H-2A R/B 4.4 10:08:23 10° N 10:11:22 35° NW 10:11:22 35° NW
FENGYUN 3A 3.6 10:09:08 10° NNE 10:14:32 84° ESE 10:15:51 53° S
SL-24 DEB 4.5 10:11:29 10° NNE 10:16:01 63° E 10:17:00 49° SSE
AQUA 3.8 10:14:04 10° NNE 10:18:47 75° ESE 10:19:42 57° SSE
USA 238 DEB 4.0 10:20:07 35° W 10:22:05 46° NW 10:28:20 10° NNE
USA 238 4.0 10:20:10 36° W 10:22:07 46° NW 10:28:24 10° NNE
ALOS 2.6 10:20:15 10° NNE 10:24:49 60° E 10:26:09 42° SSE
ADEOS II 2.0 10:21:43 10° N 10:26:57 71° WNW 10:28:15 50° SW
SAR-Lupe-4 4.3 10:26:12 10° NNE 10:29:36 44° E 10:30:06 41° SE
Delta 142 4.4 10:30:17 39° S 10:30:17 39° S 10:35:03 10° ESE
BREEZE-M DEB (TANK) 3.3 10:30:15 45° SE 10:30:31 46° SE 10:36:51 10° NE
ATLAS 5 CENTAUR R/B 2.2 10:37:32 27° SE 10:37:49 28° ESE 10:40:42 10° NE
Cosmos 921 Rocket 2.7 10:37:59 10° NNW 10:42:11 83° WSW 10:43:33 42° S
Resurs 1-4 Rocket 3.1 10:38:31 10° N 10:43:02 30° WNW 10:44:17 27° W
Iridium 2 4.5 10:45:17 26° N 10:45:17 26° N 10:46:32 10° N
Dummy Sat-01 4.4 10:41:06 10° N 10:44:49 78° W 10:45:20 62° SSW
Meteor 1-28 Rocket 2.9 10:44:34 63° S 10:45:04 84° WSW 10:48:38 10° NNW
Cosmos 1844 4.3 10:43:33 32° WSW 10:45:29 42° WNW 10:50:58 10° N
Cosmos 1606 Rocket 3.6 10:42:56 10° NNW 10:47:17 59° W 10:48:20 45° SW
Cosmos 2058 2.9 10:46:01 40° S 10:47:22 77° E 10:51:26 10° N
Cosmos 1934 Rocket 4.0 10:44:13 31° SSW 10:47:29 75° W 10:53:51 10° N
SL-16 R/B 2.5 10:44:24 12° SSE 10:50:19 87° WSW 10:56:35 10° NNW
IRAS Rocket 4.2 10:45:49 10° NNE 10:51:19 88° ESE 10:54:25 27° SSW
Cosmos 2123 Rocket 3.9 10:47:19 10° N 10:53:32 88° W 10:59:02 14° S
NOSS 2-2 (C) 2.9 10:54:30 50° S 10:55:14 70° ESE 10:58:22 10° NE
Cosmos 2298 Rocket 4.1 10:56:45 25° S 10:59:52 78° ESE 11:05:12 10° NNE
Cosmos 1726 Rocket 3.7 10:57:59 10° NNW 11:02:18 54° W 11:04:06 31° SSW
NOSS 2-2 (D) 3.5 11:03:33 30° S 11:04:58 51° ESE 11:08:05 10° NE
Cosmos 1238 Rocket 3.0 11:02:09 10° N 11:05:14 47° E 11:07:23 16° SSE
USA 267 3.7 11:03:09 10° NNE 11:09:28 54° NW 11:14:06 19° WSW
Delta 2 Rocket 3.1 11:08:38 20° W 11:11:17 73° SSW 11:15:36 10° ESE
NOSS 2-3 (E) 3.2 11:10:11 29° SSW 11:11:53 68° ESE 11:15:33 10° NE
Cosmos 1844 Rocket 4.3 11:10:44 16° W 11:13:15 21° WNW 11:17:23 10° N
METEOR-M 4.1 11:08:00 10° NNE 11:13:23 88° ESE 11:17:40 16° SSW
NOAA 11 4.2 11:08:16 10° NNE 11:13:45 80° ESE 11:18:28 14° S
NOSS 2-3 (C) 3.0 11:15:42 28° SSW 11:17:31 81° ESE 11:21:13 10° NNE
SEDSat Delta rocket 2.8 11:19:21 23° WSW 11:21:42 60° S 11:25:41 10° ESE
H-2A R/B 4.0 11:18:49 10° NE 11:23:09 26° E 11:27:21 10° SSE
Cosmos 724 4.3 11:18:20 10° NNW 11:24:11 88° ENE 11:30:04 10° SSE
ASTEX 1 4.5 11:23:12 21° WSW 11:24:53 26° W 11:28:55 10° NNW
Cosmos 1544 3.2 11:26:12 28° W 11:26:28 29° W 11:28:48 10° NNW
IRS-1D 3.9 11:22:46 10° NNE 11:27:51 62° ESE 11:32:48 10° S
Orbus 7S? 4.4 11:25:04 10° WNW 11:28:49 47° SW 11:36:45 10° SSE
Cosmos 1602 Rocket 4.0 11:25:44 10° S 11:30:07 64° E 11:34:32 10° NNE
Cosmos 1271 Rocket 3.1 11:30:14 10° S 11:33:43 55° E 11:37:14 10° NNE
CZ-2C R/B 2.2 11:29:26 10° NNE 11:34:00 86° WNW 11:38:37 10° SSW
Lacrosse 5 3.3 11:30:26 10° S 11:34:49 30° ESE 11:39:13 10° ENE
Envisat 3.3 11:31:50 10° N 11:36:44 51° WNW 11:40:58 14° SW
Cosmos 2278 Rocket 3.2 11:32:49 10° S 11:38:11 45° ESE 11:43:33 10° NE
Cosmos 1862 3.7 11:35:25 10° S 11:39:09 59° E 11:42:53 10° NNE
UNK 4.3 11:36:42 10° SSW 11:40:54 37° W 11:45:10 10° NNW
Cosmos 1758 Rocket 3.5 11:38:12 10° S 11:42:37 76° W 11:47:02 10° N
Cosmos 2058 Rocket 3.7 11:39:29 10° NNW 11:43:30 35° W 11:47:28 10° SSW
YAOGAN 6 2.4 11:43:49 10° N 11:46:57 56° WNW 11:49:48 12° SSW
USA 276 3.0 11:47:58 12° SSW 11:50:23 35° SE 11:53:03 10° ENE
SWARM A 4.4 11:47:33 10° S 11:51:04 85° E 11:54:37 10° N
Cosmos 1812 4.3 11:50:04 10° NW 11:52:18 16° W 11:53:51 12° WSW
Mugunghwa Rocket 4.4 11:47:32 10° WSW 11:53:42 42° S 11:59:35 10° ESE
